Regional Weather Roundup
Issued by NWS Northern Indiana

Home | Current Version | Previous Version | Graphics & Text | Print | Product List | Glossary On
Versions: 1 2 3 4 5 6 7 8 9 10 11 12 13 14 15 16 17 18 19 20 21 22 23 24 25 26 27 28 29 30 31 32 33 34 35 36 37 38 39 40 41 42 43 44 45 46 47 48 49 50
000
ASUS43 KIWX 182200
RWRIWX

KIWX WEATHER ROUNDUP
NATIONAL WEATHER SERVICE NORTHERN INDIANA
600 PM EDT FRI APR 18 2014

NOTE: "FAIR" INDICATES FEW OR NO CLOUDS BELOW 12,000 FEET WITH NO
SIGNIFICANT WEATHER AND/OR OBSTRUCTIONS TO VISIBILITY.

* THESE STATIONS ARE NOT UNDER NWS QUALITY CONTROL. THEY ALSO MAY NOT
  REPORT WEATHER SUCH AS PRECIPITATION OR FOG.

INZ001>027-182300-
NORTHERN INDIANA

CITY           SKY/WX    TMP DP  RH WIND       PRES   REMARKS
GARY*          MOSUNNY   45  34  65 NE10      30.35F
VALPARAISO     SUNNY     48  34  58 N12       30.32S
LAPORTE*       SUNNY     47  34  61 N12       30.32S
SOUTH BEND     SUNNY     54  37  52 N15       30.31S
GOSHEN         SUNNY     62  36  37 NW14      30.26S
MONTICELLO*    SUNNY     65  37  35 N10       30.25S
ANGOLA*        SUNNY     64  37  36 NW10      30.23F
FORT WAYNE     MOSUNNY   67  36  31 NW9       30.24S
PERU/GRISSOM   SUNNY     66  39  36 N6        30.24S

$$
INZ028>050-182300-
CENTRAL INDIANA

CITY           SKY/WX    TMP DP  RH WIND       PRES   REMARKS
LAFAYETTE      SUNNY     66  35  31 NW12      30.23F
KOKOMO*          N/A    N/A N/A N/A MISG        N/A
MUNCIE*        MOSUNNY   67  39  35 NW15G22   30.22F
INDIANAPOLIS   MOSUNNY   68  39  34 N8        30.22F

$$
MIZ043>046-050>051-056>058-064>065-071>073-077>080-182300-
SOUTHWEST LOWER MICHIGAN

CITY           SKY/WX    TMP DP  RH WIND       PRES   REMARKS
BATTLE CREEK   SUNNY     61  29  29 W15G21    30.26S
BENTON HARBOR  SUNNY     40  30  67 N13G22    30.34S
COLDWATER*     SUNNY     62  31  30 W12       30.24S
HILLSDALE*     SUNNY     64  30  27 W12       30.23F
HOLLAND        SUNNY     47  33  58 NW9       30.34R
GRAND RAPIDS   MOSUNNY   57  32  38 W16       30.29R
KALAMAZOO      SUNNY     60  32  34 NW15G21   30.28R
STURGIS*       SUNNY     61  36  39 NW10G18   30.25S
THREE RIVERS*  FAIR      60  32  34 NW10      30.27S

$$
OHZ001>008-015>018-024>025-182300-
NORTHWEST OHIO

CITY           SKY/WX    TMP DP  RH WIND       PRES   REMARKS
DEFIANCE       SUNNY     68  37  32 NW12G20   30.22F
FINDLAY        MOSUNNY   68  38  33 W14G21    30.20F
TOLEDO EXPRESS MOSUNNY   66  37  34 NW13      30.21F
TOLEDO METCALF PTSUNNY   65  41  41 NE6G18    30.22F
LIMA           MOSUNNY   68  40  35 NW14      30.21F

$$
&&



USA.gov is the U.S. government's official web portal to all federal, state and local government web resources and services.